Mobile, AL

9:09 AM CST on January 22, 2018 (GMT -0600)
Mobile Regional

Weather History for KMOB - March, 2015

Change the Weather History Date:

Tuesday, March 3, 2015

  Actual Average Record
Temperature  
Mean Temperature 66 °F 58 °F  
Max Temperature 73 °F 68 °F 81 °F (1910)
Min Temperature 59 °F 47 °F 23 °F (1980)
Degree Days  
Heating Degree Days 0 8  
Month to date heating degree days 14 25  
Since 1 July heating degree days 1716 1467  
Cooling Degree Days 1 1  
Month to date cooling degree days 1 3  
Year to date cooling degree days 5 19  
Growing Degree Days 16 (Base 50)    
Moisture  
Dew Point 63 °F    
Average Humidity 87    
Maximum Humidity 100    
Minimum Humidity 73    
Precipitation  
Precipitation 0.00 in 0.20 in 5.14 in (1979)
Month to date precipitation 0.49 0.60  
Year to date precipitation 6.54 11.37  
Snow  
Snow 0.00 in 0.00 in - ()
Month to date snowfall 0.0 0.0  
Since 1 July snowfall T 0.1  
Snow Depth 0.00 in    
Sea Level Pressure  
Sea Level Pressure 30.11 in    
Wind  
Wind Speed 9 mph (SE)    
Max Wind Speed 17 mph    
Max Gust Speed 21 mph    
Visibility 5 miles    
Events Fog    
T = Trace of Precipitation, MM = Missing Value Source: NWS Daily Summary

Daily Weather History Graph

Daily Weather History Graph

Search for Another Location

Airport or City:

Trip Planner

Search our weather history database for the weather conditions in past years. The results will help you decide how hot, cold, wet, or windy it might be!

Date:

Astronomy

Mar. 03, 2015 Rise Set
Actual Time 6:17 AM CST 5:52 PM CST
Civil Twilight 5:53 AM CST 6:17 PM CST
Nautical Twilight 5:25 AM CST 6:45 PM CST
Astronomical Twilight 4:57 AM CST 7:12 PM CST
Moon 4:20 PM CST (3/3) 4:51 AM CST (3/3)
Length of Visible Light 12h 23m
Length of Day
11h 35m
Waxing Gibbous, 96% of the Moon is Illuminated
Mar 3
Waxing Gibbous
Mar 5
Full
Mar 13
Last Quarter
Mar 20
New
Mar 27
First Quarter

Hourly Weather History & Observations

Time (CST) Temp. Dew Point Humidity Pressure Visibility Wind Dir Wind Speed Gust Speed Precip Events Conditions
12:56 AM 60.1 °F - N/A% 30.19 in 0.2 mi SE 4.6 mph - N/A Fog Fog
1:56 AM 60.1 °F - N/A% 30.18 in 0.2 mi SSE 5.8 mph - N/A Fog Fog
2:56 AM 60.1 °F - N/A% 30.15 in 0.2 mi SSE 4.6 mph - N/A Fog Fog
3:56 AM 60.1 °F - N/A% 30.14 in 0.2 mi SE 4.6 mph - N/A Fog Fog
4:31 AM 60.1 °F - N/A% 30.15 in 0.5 mi SE 4.6 mph - N/A Fog Fog
4:56 AM 60.1 °F - N/A% 30.14 in 0.5 mi SSE 4.6 mph - N/A Fog Fog
5:30 AM 60.1 °F - N/A% 30.15 in 0.2 mi SSE 5.8 mph - N/A Fog Fog
5:56 AM 60.1 °F 60.1 °F 100% 30.16 in 0.2 mi South 6.9 mph - N/A Fog Fog
6:56 AM 60.1 °F 60.1 °F 100% 30.17 in 0.5 mi SE 5.8 mph - N/A Fog Fog
7:56 AM 60.1 °F 60.1 °F 100% 30.18 in 1.0 mi SE 6.9 mph - N/A   Overcast
8:19 AM 61.0 °F 61.0 °F 100% 30.19 in 3.0 mi SE 5.8 mph - N/A   Overcast
8:56 AM 61.0 °F 61.0 °F 100% 30.19 in 3.0 mi SE 6.9 mph - N/A   Overcast
9:29 AM 62.1 °F 62.1 °F 100% 30.19 in 3.0 mi SE 8.1 mph - N/A   Overcast
9:43 AM 62.1 °F 62.1 °F 100% 30.19 in 3.0 mi SE 8.1 mph - N/A   Overcast
9:56 AM 62.1 °F 62.1 °F 100% 30.18 in 3.0 mi SE 6.9 mph - N/A   Overcast
10:42 AM 66.0 °F 64.9 °F 96% 30.18 in 5.0 mi SE 9.2 mph - N/A   Overcast
10:56 AM 68.0 °F 64.0 °F 87% 30.18 in 5.0 mi SSE 11.5 mph - N/A   Overcast
11:32 AM 71.1 °F 64.0 °F 78% 30.17 in 7.0 mi SSE 8.1 mph - N/A   Overcast
11:56 AM 71.1 °F 64.0 °F 78% 30.15 in 7.0 mi SSE 11.5 mph - N/A   Overcast
12:56 PM 73.0 °F 64.0 °F 73% 30.12 in 7.0 mi SSE 11.5 mph - N/A   Overcast
1:56 PM 71.1 °F 64.0 °F 78% 30.10 in 7.0 mi South 11.5 mph - N/A   Overcast
2:31 PM 69.1 °F 63.0 °F 81% 30.10 in 10.0 mi SSE 12.7 mph - N/A   Overcast
2:56 PM 69.1 °F 64.0 °F 84% 30.09 in 10.0 mi SE 10.4 mph - N/A   Overcast
3:56 PM 69.1 °F 64.0 °F 84% 30.06 in 10.0 mi SE 12.7 mph - N/A   Mostly Cloudy
4:21 PM 69.1 °F 64.0 °F 84% 30.07 in 10.0 mi SE 12.7 mph - N/A   Mostly Cloudy
4:56 PM 68.0 °F 63.0 °F 84% 30.06 in 10.0 mi SE 12.7 mph - N/A   Mostly Cloudy
5:27 PM 66.9 °F 63.0 °F 87% 30.06 in 10.0 mi SE 11.5 mph - N/A   Scattered Clouds
5:56 PM 66.0 °F 63.0 °F 90% 30.05 in 10.0 mi SE 11.5 mph - N/A   Partly Cloudy
6:17 PM 64.9 °F 63.0 °F 93% 30.06 in 7.0 mi SSE 13.8 mph - N/A   Scattered Clouds
6:32 PM 64.9 °F 63.0 °F 93% 30.06 in 7.0 mi SSE 8.1 mph - N/A   Overcast
6:56 PM 64.0 °F 63.0 °F 96% 30.06 in 7.0 mi SSE 9.2 mph - N/A   Mostly Cloudy
7:09 PM 64.0 °F 63.0 °F 96% 30.06 in 10.0 mi SSE 8.1 mph - N/A   Scattered Clouds
7:41 PM 63.0 °F 62.1 °F 97% 30.06 in 7.0 mi SE 9.2 mph - N/A   Mostly Cloudy
7:56 PM 64.0 °F 63.0 °F 96% 30.06 in 7.0 mi SE 10.4 mph - N/A   Overcast
8:48 PM 63.0 °F 62.1 °F 97% 30.08 in 10.0 mi SSE 4.6 mph - N/A   Mostly Cloudy
8:56 PM 63.0 °F 62.1 °F 97% 30.07 in 10.0 mi SSE 4.6 mph - N/A   Mostly Cloudy
9:12 PM 63.0 °F 62.1 °F 97% 30.08 in 10.0 mi SSE 4.6 mph - N/A   Overcast
9:47 PM 64.0 °F 63.0 °F 96% 30.07 in 6.0 mi SSE 11.5 mph - N/A   Overcast
9:56 PM 64.0 °F 63.0 °F 96% 30.06 in 3.0 mi SSE 9.2 mph - N/A   Overcast
10:50 PM 64.4 °F 64.4 °F 100% 30.07 in 2.0 mi SSE 8.1 mph - N/A   Overcast
10:56 PM 64.9 °F 64.0 °F 97% 30.06 in 2.0 mi SSE 11.5 mph - N/A   Overcast
11:07 PM 64.9 °F 64.0 °F 97% 30.07 in 4.0 mi SSE 12.7 mph - N/A   Overcast
11:56 PM 64.9 °F 64.0 °F 97% 30.05 in 2.5 mi SE 9.2 mph - N/A   Overcast